Location: Appleton
(44.2618°N, 88.4157°W)
Time: 08:08:20
(UTC+00:00)

S-56A Canister/Altair - Pass Details

Date: 08 March 2021
Orbit: 632 x 2500 km, 38.9° (Epoch: 17 April)

Event Time Altitude Azimuth Distance (km) Brightness Sun altitude
Rises 16:52:47 0° 210° (SSW) 4,774 12.0 38.6°
Reaches altitude 10° 16:55:57 10° 202° (SSW) 4,039 11.9 38.8°
Maximum altitude 17:05:51 36° 141° (SE) 3,047 12.5 39.4°
Drops below altitude 10° 17:18:22 10° 82° (E) 5,124 11.9 40.1°
Sets 17:22:56 0° 76° (ENE) 6,182 12.1 40.3°
